FENGYUN 1C DEB, 39543

Orbit data source: Space-Track

FENGYUN 1C DEB, 39543 is space debris in SSO originally from a launch on Mon, 10 May 1999 UTC launched from the Taiyaun Space Center, China (TSC). Fengyun 1C debris stems from the Chinese weather satellite Fengyun-1C, which was intentionally destroyed by a Chinese anti-satellite missile in 2007. This event dramatically increased the amount of space debris, with thousands of trackable fragments posing hazards to satellites and human spaceflight. The Fengyun 1C debris cloud has become a focal point in discussions about space sustainability and the need for international regulations to prevent the creation of new debris.

Loading next visibility...
Identifier
39543, 1999-025EWL
Orbit
SSO
Country
Flag of CNCN / PRC
Related business
Manufacturer
Unknown
Mission
Spacecraft
Bus & Motor
Unknown
Mass
Unknown
Launch date (UTC)
1999-05-10 (27 years ago)
Launch vehicle
Unknown
Launch site
Taiyaun Space Center, China (TSC)
Object type
Payload
Rocket body
Debris
Shape & HBR
Unknown shape, 0.1 m
Radar Cross Section
Medium (>0.1 m² and <1 m²)

Expand to show TLE details & history
Last TLE update: 4 days ago

TLE from 4 days ago
0 FENGYUN 1C DEB
1 39543U 99025EWL 26250.33066966  .00000564  00000-0  45285-3 0  9995
2 39543  99.0206 269.3923 0337926 154.8728 206.9300 13.70718849528644
Epoch: 2026-09-07T07:56Z
TLE epoch observation values (Epoch: 2026-09-07T07:56:09.858Z)
Latitude
0.00006°
Longitude
163.93824°
Altitude
1,223.729 km
Speed
7.132 km/s
True Right ascension
17h 57m 34s
True Declination
0° 00' 00"
Sunlit
Object was in daylight at epoch
Visualization orbit readout
Latitude
Unknown
Longitude
Unknown
Altitude
Unknown
Speed
Unknown
Apparent Right ascension
Unknown
Apparent Declination
Unknown
Sunlit
N/A
Visualization observer readout
Local Sidereal Time
10:06:23
Azimuth
Unknown
Elevation
Unknown
Doppler factor
Unknown
Orbital elements
Apogee altitude
1,243.358 km
Perigee altitude
745.095 km
Semi-major axis
7,372.363 km
Eccentricity
0.03379
Inclination
99.0206°
RAAN
269.3923°
Arg. of periapsis
154.8728°
True anomaly
205.24019°
Mean anomaly
206.93°
Eccentric anomaly
206.07884°
Mean motion
3.42873 °/min
Orbital period
105 mins
BSTAR
0.00045285
Loading maneuver chart data...
Computing Atmospheric mass density...

Documentation

Showing up to 5 results
|